Date,TemperatureHighF,TemperatureAvgF,TemperatureLowF,DewpointHighF,DewpointAvgF,DewpointLowF,HumidityHigh,HumidityAvg,HumidityLow,PressureMaxIn,PressureMinIn,WindSpeedMaxMPH,WindSpeedAvgMPH,GustSpeedMaxMPH,PrecipitationSumIn
2013-1-1,38.6,25.7,15.4,18.0,11.2,8.0,78,57,33,30.38,30.07,7,1,0,0.00
2013-1-2,39.8,23.1,7.7,9.0,5.8,1.0,78,51,22,30.48,30.22,4,0,0,0.00
2013-1-3,40.2,24.5,14.6,11.0,6.2,2.0,67,48,27,30.51,30.30,6,1,0,0.00
2013-1-4,38.2,20.7,6.5,5.0,1.0,-3.0,67,45,22,30.59,30.26,2,0,0,0.00
2013-1-5,44.9,24.5,8.1,8.0,2.9,0.0,76,44,18,30.63,30.36,3,0,0,0.00
2013-1-6,44.5,25.1,8.3,8.0,4.5,0.0,70,45,20,30.64,30.16,3,0,0,0.00
2013-1-7,52.8,34.9,23.3,15.0,10.6,7.0,61,39,21,30.18,29.86,5,0,0,0.00
2013-1-8,51.6,32.8,16.7,16.0,10.9,7.0,73,45,17,30.25,29.93,6,1,0,0.00
2013-1-9,56.5,33.4,17.0,14.0,10.9,8.0,71,44,17,30.55,30.14,3,0,0,0.00
2013-1-10,48.5,31.4,18.4,13.0,10.6,8.0,65,44,23,30.16,29.71,3,0,0,0.00
2013-1-11,40.8,30.4,18.8,22.0,1.9,-12.0,73,34,15,30.00,29.59,10,2,0,0.00
2013-1-12,37.3,19.1,4.5,-2.0,-7.6,-16.0,59,34,14,30.20,29.93,3,0,0,0.00
2013-1-13,34.0,17.7,4.1,1.0,-5.0,-10.0,60,39,21,30.36,30.08,3,0,0,0.00
2013-1-14,29.0,19.5,10.2,21.0,8.4,-3.0,76,62,44,30.25,30.07,4,0,0,0.02
2013-1-15,27.2,15.6,2.2,3.0,-1.9,-5.0,74,49,28,30.58,30.24,7,1,0,0.00
2013-1-16,42.8,23.1,6.9,12.0,4.6,-2.0,71,48,26,30.71,30.40,2,0,0,0.00
2013-1-17,53.2,28.6,11.4,14.0,9.9,4.0,74,50,20,30.71,30.40,3,0,0,0.00
2013-1-18,56.2,31.2,14.4,17.0,11.4,-99.9,80,51,20,30.59,30.23,3,0,0,0.00
2013-1-19,57.2,33.7,20.0,18.0,14.4,11.0,71,50,18,30.50,30.21,2,0,0,0.00
2013-1-20,57.0,33.3,14.9,15.0,11.1,4.0,76,46,14,30.49,30.12,5,0,0,0.00
2013-1-21,57.3,35.2,13.3,15.0,9.6,4.0,71,40,16,30.48,30.15,5,0,0,0.00
2013-1-22,62.1,35.9,17.2,15.0,12.0,6.0,76,43,14,30.43,30.18,2,0,0,0.00
2013-1-23,61.5,35.8,16.5,14.0,9.4,7.0,68,39,12,30.49,30.22,3,0,0,0.00
2013-1-24,65.3,41.7,18.8,33.0,15.5,8.0,68,40,13,30.44,30.08,4,0,0,0.00
2013-1-25,60.7,45.1,32.2,37.0,31.6,25.0,80,61,41,30.20,30.02,1,0,0,0.00
2013-1-26,54.4,45.4,39.9,48.0,37.8,32.0,87,75,55,30.03,29.72,5,0,0,0.14
2013-1-27,62.7,48.3,36.8,41.0,35.7,30.0,88,66,29,29.92,29.70,6,1,0,0.00
2013-1-28,57.0,42.9,32.1,37.0,30.1,16.0,88,63,36,29.79,29.60,6,1,0,0.03
2013-1-29,37.6,33.0,27.0,20.0,11.7,0.0,63,42,22,30.02,29.65,15,3,0,0.00
2013-1-30,44.1,31.7,19.7,14.0,11.2,5.0,65,45,24,30.27,30.00,13,2,0,0.00
2013-1-31,56.2,35.5,18.1,21.0,16.2,12.0,80,51,19,30.43,30.17,6,0,0,0.00
2013-2-1,60.2,37.7,18.3,23.0,16.7,13.0,84,49,19,30.39,30.10,3,0,0,0.00
2013-2-2,60.4,40.9,23.3,21.0,17.7,14.0,73,44,18,30.42,30.18,3,0,0,0.00
2013-2-3,54.2,40.0,25.0,27.0,18.0,-99.9,71,46,21,30.25,29.89,2,-10,0,0.00
2013-2-4,61.2,45.7,29.8,27.0,22.4,16.0,77,43,18,30.07,29.84,10,0,0,0.00
2013-2-5,58.6,35.8,26.4,22.0,16.9,12.0,72,49,16,30.12,29.87,0,0,0,0.00
2013-2-6,64.5,42.8,22.5,25.0,18.5,14.0,71,42,21,30.05,29.72,5,0,0,0.00
2013-2-7,60.9,42.3,27.8,25.0,18.2,10.0,74,43,15,30.13,29.85,6,0,0,0.00
2013-2-8,59.8,43.1,29.4,21.0,18.5,14.0,66,40,22,30.09,29.66,8,1,0,0.00
2013-2-9,49.8,34.9,21.0,23.0,14.1,2.0,78,47,18,29.85,29.53,12,2,0,0.00
2013-2-10,46.4,33.1,19.2,21.0,12.3,6.0,73,46,21,30.01,29.81,6,0,0,0.00
2013-2-11,48.5,32.6,17.0,21.0,14.0,1.0,82,53,15,30.13,29.86,5,0,0,0.00
2013-2-12,44.2,33.2,24.2,20.0,9.9,3.0,63,41,18,30.22,29.89,9,2,0,0.00
2013-2-13,51.1,34.3,15.7,14.0,9.8,6.0,68,39,20,30.30,30.01,11,1,0,0.00
2013-2-14,54.8,39.1,22.1,18.0,14.5,12.0,68,40,19,30.21,29.97,11,1,0,0.00
2013-2-15,53.9,38.3,20.6,20.0,10.0,-2.0,75,38,10,30.39,30.15,10,1,0,0.00
2013-2-16,62.4,38.6,18.6,10.0,5.2,-4.0,63,30,8,30.50,30.10,3,0,0,0.00
2013-2-17,62.3,40.7,16.7,7.0,3.0,-1.0,52,26,9,30.15,29.62,4,1,0,0.00
2013-2-18,55.7,42.2,28.2,16.0,-3.6,-21.0,48,18,5,30.05,29.62,7,1,0,0.00
2013-2-19,62.3,40.8,17.7,33.0,6.2,-10.0,63,28,9,30.14,29.57,11,1,0,0.00
2013-2-20,52.9,43.2,34.0,34.0,26.8,14.0,77,56,23,29.57,29.34,8,1,0,0.00
2013-2-21,51.4,38.4,29.4,27.0,20.6,14.0,84,53,23,29.85,29.45,7,1,0,0.02
2013-2-22,44.9,34.2,25.0,21.0,17.2,8.0,70,52,24,30.06,29.83,8,0,0,0.00
2013-2-23,52.0,33.9,16.2,16.0,9.5,6.0,68,41,17,30.20,29.62,5,0,0,0.00
2013-2-24,43.9,35.6,29.7,23.0,11.9,0.0,76,41,19,29.87,29.57,14,3,0,0.00
2013-2-25,52.2,37.8,26.3,22.0,6.5,-3.0,72,31,12,30.11,29.85,8,2,0,0.00
2013-2-26,50.5,33.9,16.7,14.0,1.7,-12.0,70,30,10,30.07,29.78,22,3,0,0.00
2013-2-27,49.1,33.0,15.9,7.0,1.5,-6.0,59,29,13,30.38,30.03,3,0,0,0.00
2013-2-28,56.9,36.9,19.5,6.0,0.2,-8.0,47,24,7,30.42,30.17,7,1,0,0.00
2013-3-1,62.4,46.5,30.7,18.0,10.8,3.0,36,24,15,30.36,30.11,10,2,0,0.00
2013-3-2,69.8,47.0,25.7,22.0,18.1,15.0,64,36,14,30.41,30.04,3,0,0,0.00
2013-3-3,71.8,49.5,26.4,20.0,14.3,-1.0,73,32,6,30.08,29.64,8,1,0,0.00
2013-3-4,66.6,53.5,40.3,20.0,17.6,13.0,41,25,13,29.96,29.54,11,1,0,0.00
2013-3-5,64.3,46.4,31.0,20.0,15.2,6.0,61,33,10,30.27,29.95,3,0,0,0.00
2013-3-6,69.3,51.2,37.9,24.0,18.6,12.0,43,29,16,30.06,29.73,6,0,0,0.00
2013-3-7,74.4,53.1,31.5,19.0,14.8,10.0,53,25,11,30.00,29.66,2,0,0,0.00
2013-3-8,63.1,46.5,33.2,43.0,24.5,9.0,83,47,17,29.82,29.58,8,1,0,0.10
2013-3-9,49.9,40.7,32.2,32.0,22.3,14.0,73,50,25,29.92,29.61,7,1,0,0.00
2013-3-10,56.3,40.3,27.0,27.0,20.3,10.0,82,51,20,30.13,29.91,9,1,0,0.00
2013-3-11,66.6,45.6,25.1,18.0,14.2,5.0,65,35,9,30.19,29.89,7,1,0,0.00
2013-3-12,71.8,52.0,30.7,22.0,19.2,16.0,65,31,14,30.14,29.90,7,1,0,0.00
2013-3-13,74.2,52.3,30.7,24.0,19.9,14.0,68,33,13,30.29,30.02,5,0,0,0.00
2013-3-14,79.0,56.6,36.0,22.0,17.1,14.0,54,25,9,30.22,29.97,5,0,0,0.00
2013-3-15,82.8,56.5,33.7,23.0,16.5,9.0,60,27,6,30.13,29.69,3,0,0,0.00
2013-3-16,74.2,57.5,36.6,33.0,20.2,14.0,50,26,11,29.80,29.55,10,1,0,0.00
2013-3-17,73.2,54.2,36.2,35.0,18.9,-11.0,73,35,4,29.73,29.47,8,1,0,0.00
2013-3-18,71.3,51.9,30.4,15.0,6.6,-1.0,47,19,7,29.90,29.65,10,1,0,0.00
2013-3-19,65.8,48.6,36.9,17.0,10.0,1.0,43,23,11,30.07,29.80,10,1,0,0.00
2013-3-20,66.0,48.9,27.8,24.0,17.1,13.0,64,32,15,30.23,29.66,4,1,0,0.00
2013-3-21,75.4,59.7,45.4,30.0,17.7,-1.0,43,24,5,29.66,29.36,14,2,0,0.00
2013-3-22,69.1,51.5,29.8,25.0,11.4,2.0,56,23,8,29.73,29.45,9,2,0,0.00
2013-3-23,52.3,40.9,28.4,25.0,-0.1,-18.0,58,22,7,30.09,29.47,17,4,0,0.00
2013-3-24,56.7,39.6,21.3,-2.0,-7.5,-17.0,25,14,8,30.21,29.83,7,2,0,0.00
2013-3-25,59.9,41.5,25.6,13.0,4.9,-4.0,43,24,12,30.21,29.96,11,1,0,0.00
2013-3-26,68.4,49.5,28.4,13.0,7.8,3.0,36,20,10,30.17,29.80,7,1,0,0.00
2013-3-27,75.8,56.7,37.3,15.0,11.0,5.0,39,19,7,29.94,29.73,5,0,0,0.00
2013-3-28,75.6,59.4,40.8,24.0,15.4,8.0,51,20,8,29.92,29.73,8,0,0,0.00
2013-3-29,77.6,59.9,40.2,25.0,18.3,14.0,48,23,9,30.01,29.78,7,0,0,0.00
2013-3-30,76.3,57.2,34.4,25.0,19.1,13.0,55,27,9,30.05,29.73,6,0,0,0.00
2013-3-31,76.8,60.0,44.2,37.0,26.6,23.0,51,31,14,29.88,29.67,3,0,0,0.00
2013-4-1,77.9,59.9,39.5,30.0,19.0,5.0,60,27,7,29.90,29.58,6,1,0,0.00
2013-4-2,71.3,56.1,40.1,22.0,15.7,0.0,43,22,6,29.78,29.55,11,1,0,0.00
2013-4-3,69.9,53.5,39.6,29.0,23.8,16.0,61,36,14,29.97,29.72,7,1,0,0.00
2013-4-4,77.0,55.2,32.9,28.0,20.8,11.0,71,33,8,30.11,29.84,3,0,0,0.00
2013-4-5,80.1,62.0,43.5,27.0,15.4,7.0,49,19,7,29.93,29.53,6,1,0,0.00
2013-4-6,79.8,63.2,43.8,25.0,19.6,13.0,48,21,9,29.77,29.51,6,1,0,0.00
2013-4-7,78.6,65.2,46.5,27.0,18.7,13.0,46,19,9,29.65,29.41,8,1,0,0.00
2013-4-8,79.4,63.9,45.2,27.0,19.8,10.0,45,20,7,29.47,29.02,13,2,0,0.00
2013-4-9,55.3,48.1,40.8,36.0,30.1,25.0,79,52,33,29.72,29.08,10,2,0,0.04
2013-4-10,51.3,42.6,33.1,35.0,24.1,17.0,80,51,29,29.91,29.70,8,1,0,0.01
2013-4-11,67.4,49.0,27.9,28.0,21.3,15.0,67,37,19,29.95,29.64,18,2,0,0.00
2013-4-12,72.1,58.5,41.3,32.0,27.2,21.0,66,34,15,29.77,29.57,5,1,0,0.00
2013-4-13,77.4,60.2,36.9,32.0,20.0,9.0,57,26,9,29.77,29.36,7,1,0,0.00
2013-4-14,80.5,66.7,54.2,24.0,20.3,16.0,28,18,9,29.43,29.24,10,2,0,0.00
2013-4-15,83.8,64.7,41.5,30.0,19.2,9.0,63,21,6,29.53,29.24,12,2,0,0.00
2013-4-16,82.6,65.5,44.6,24.0,16.0,5.0,42,17,5,29.57,29.27,8,2,0,0.00
2013-4-17,62.7,54.0,38.8,26.0,18.5,7.0,41,26,11,29.81,29.33,16,2,0,0.00
2013-4-18,52.2,41.7,29.7,16.0,4.0,-3.0,47,23,11,30.13,29.82,12,3,0,0.00
2013-4-19,67.6,46.6,25.1,13.0,5.1,1.0,50,21,7,30.33,29.84,5,0,0,0.00
2013-4-20,71.8,55.5,38.9,23.0,12.8,3.0,51,22,9,29.88,29.64,12,2,0,0.00
2013-4-21,78.5,57.0,33.8,24.0,15.8,-99.9,65,26,6,30.02,29.73,6,-10,0,0.00
2013-4-22,85.1,64.0,36.5,26.0,16.0,7.0,56,22,6,29.84,29.42,13,1,0,0.00
2013-4-23,72.5,59.2,43.8,29.0,14.7,-13.0,49,20,5,29.89,29.42,10,2,0,0.00
2013-4-24,73.0,50.8,30.3,29.0,17.8,13.0,56,31,11,30.13,29.83,5,1,0,0.00
2013-4-25,77.7,61.7,49.6,29.0,22.3,11.0,45,24,9,29.92,29.54,7,1,0,0.00
2013-4-26,79.0,61.8,41.5,31.0,20.7,1.0,64,27,5,29.90,29.72,8,1,0,0.00
2013-4-27,81.1,61.3,39.2,29.0,15.6,-7.0,62,25,4,30.06,29.76,5,0,0,0.00
2013-4-28,84.7,62.6,36.5,23.0,12.2,0.0,54,20,4,29.92,29.58,9,0,0,0.00
2013-4-29,89.5,65.7,39.2,30.0,18.5,13.0,65,22,7,29.72,29.38,6,0,0,0.00
2013-4-30,89.0,68.8,44.5,32.0,19.3,9.0,55,20,6,29.58,29.37,11,1,0,0.00
2013-5-1,85.9,69.1,49.8,26.0,14.5,-7.0,38,14,6,29.82,29.40,7,1,0,0.00
2013-5-2,65.3,52.4,38.0,27.0,17.7,11.0,56,29,12,30.29,29.86,7,1,0,0.00
2013-5-3,71.5,52.6,34.4,17.0,13.5,10.0,44,23,9,30.29,29.80,5,0,0,0.00
2013-5-4,80.7,60.9,38.2,19.0,12.3,6.0,43,18,7,29.86,29.59,5,1,0,0.00
2013-5-5,77.4,64.4,51.7,31.0,19.9,6.0,28,19,10,29.86,29.65,7,1,0,0.00
2013-5-6,73.9,62.9,54.4,38.0,25.5,16.0,41,25,16,29.75,29.63,9,1,0,0.00
2013-5-7,79.6,62.7,42.6,35.0,29.9,24.0,73,33,14,29.83,29.55,10,0,0,0.00
2013-5-8,75.1,61.4,43.8,37.0,25.7,16.0,71,32,11,29.80,29.60,6,1,0,0.00
2013-5-9,75.1,61.5,44.1,32.0,24.9,19.0,56,27,15,29.82,29.69,5,0,0,0.00
2013-5-10,72.8,59.5,45.5,45.0,36.0,31.0,65,43,23,30.04,29.79,3,0,0,0.02
2013-5-11,75.6,59.8,47.3,43.0,36.8,28.0,76,48,18,30.13,29.98,5,0,0,0.00
2013-5-12,83.8,62.1,40.5,38.0,33.1,28.0,76,41,13,30.20,29.85,3,0,0,0.00
2013-5-13,88.0,66.3,44.1,38.0,32.4,26.0,66,34,11,30.06,29.76,3,0,0,0.00
2013-5-14,89.3,68.2,44.8,46.0,30.6,22.0,62,30,10,29.90,29.57,7,0,0,0.00
2013-5-15,91.0,72.0,59.8,48.0,36.2,19.0,59,32,10,29.69,29.43,6,0,0,0.00
2013-5-16,90.7,71.2,47.3,36.0,22.9,8.0,57,21,6,29.73,29.45,6,0,0,0.00
2013-5-17,90.7,72.5,47.1,37.0,22.6,9.0,52,19,7,29.72,29.45,6,0,0,0.00
2013-5-18,80.3,70.7,53.5,29.0,20.1,10.0,32,15,10,29.68,29.45,7,1,0,0.00
2013-5-19,77.4,65.7,54.2,40.0,28.7,17.0,55,27,11,29.68,29.52,13,2,0,0.00
2013-5-20,78.6,64.0,46.7,38.0,28.2,9.0,70,30,7,29.73,29.53,12,2,0,0.00
2013-5-21,84.0,64.7,44.6,39.0,30.0,20.0,63,33,10,29.84,29.53,8,0,0,0.00
2013-5-22,90.7,70.2,46.7,38.0,27.0,18.0,61,26,7,29.67,29.42,2,0,0,0.00
2013-5-23,94.7,72.5,48.3,32.0,24.5,16.0,53,21,7,29.67,29.44,4,0,0,0.00
2013-5-24,92.3,74.0,52.9,46.0,34.1,20.0,73,30,9,29.78,29.50,3,0,0,0.00
2013-5-25,94.9,73.9,48.3,37.0,25.8,9.0,54,22,5,29.80,29.47,5,0,0,0.00
2013-5-26,92.3,73.0,49.2,38.0,21.4,4.0,61,20,4,29.73,29.47,7,0,0,0.00
2013-5-27,86.7,68.4,48.8,38.0,21.9,7.0,54,22,5,29.71,29.45,7,1,0,0.00
2013-5-28,89.7,70.2,44.3,33.0,21.0,7.0,54,20,6,29.59,29.24,5,0,0,0.00
2013-5-29,84.5,72.2,59.2,41.0,22.8,7.0,48,18,6,29.40,29.25,10,1,0,0.00
2013-5-30,90.1,72.5,48.3,33.0,23.4,15.0,49,19,7,29.60,29.39,7,1,0,0.00
2013-5-31,88.6,75.0,57.2,42.0,25.2,3.0,47,20,6,29.59,29.45,11,2,0,0.00
2013-6-1,91.6,71.6,46.8,32.0,17.5,4.0,45,15,5,29.81,29.59,3,0,0,0.00
2013-6-2,90.1,75.0,60.9,45.0,35.4,27.0,43,25,15,29.82,29.48,4,0,0,0.00
2013-6-3,94.3,76.8,56.2,50.0,36.5,11.0,70,32,6,29.67,29.40,7,1,0,0.00
2013-6-4,98.0,78.7,51.6,40.0,24.5,12.0,55,17,5,29.65,29.42,5,0,0,0.00
2013-6-5,93.4,76.6,57.2,47.0,34.8,22.0,60,26,8,29.64,29.43,3,0,0,0.00
2013-6-6,94.0,74.6,54.2,46.0,38.3,25.0,65,31,10,29.70,29.49,4,0,0,0.00
2013-6-7,95.6,74.3,57.2,51.0,42.2,28.0,72,37,11,29.69,29.40,2,0,0,0.00
2013-6-8,98.5,79.4,58.1,49.0,35.2,20.0,59,27,7,29.60,29.34,7,1,0,0.00
2013-6-9,99.9,81.0,62.1,52.0,42.1,30.0,59,29,9,29.62,29.43,2,0,0,0.00
2013-6-10,104.6,84.6,60.9,55.0,40.7,24.0,69,28,7,29.65,29.40,5,0,0,0.00
2013-6-17,80.9,79.0,75.1,44.0,43.7,42.0,31,28,27,29.55,29.50,3,2,0,0.00
2013-6-18,94.9,80.2,66.0,52.0,46.6,38.0,60,33,14,29.75,29.43,5,0,0,0.00
2013-6-19,101.5,80.5,56.2,46.0,30.4,10.0,59,23,4,29.61,29.32,7,0,0,0.00
2013-6-20,100.2,77.3,54.2,46.0,25.4,2.0,55,20,3,29.63,29.39,2,0,0,0.00
2013-6-21,99.4,76.6,52.5,44.0,27.3,12.0,51,21,5,29.70,29.41,6,0,0,0.00
2013-6-22,96.1,77.4,52.9,38.0,23.2,10.0,50,18,5,29.66,29.41,7,1,0,0.00
2013-6-23,97.3,76.4,50.4,38.0,24.4,13.0,47,18,5,29.65,29.38,3,0,0,0.00
2013-6-24,97.8,77.9,56.2,44.0,23.1,6.0,48,17,4,29.62,29.42,3,0,0,0.00
2013-6-25,99.2,78.1,54.1,42.0,28.6,20.0,47,19,6,29.70,29.50,7,0,0,0.00
2013-6-26,104.1,80.0,54.7,45.0,35.5,27.0,62,25,7,29.75,29.53,2,0,0,0.00
2013-6-27,110.5,84.2,58.3,43.0,35.7,24.0,54,23,5,29.77,29.53,3,0,0,0.00
2013-6-28,102.0,85.8,74.2,50.0,42.8,32.0,38,23,13,29.81,29.55,7,1,0,0.00
2013-6-29,103.3,82.5,66.8,50.0,44.6,36.0,53,29,10,29.80,29.50,8,0,0,0.00
2013-6-30,101.5,80.4,63.5,51.0,46.3,40.0,58,33,12,29.76,29.45,6,0,0,0.00
2013-7-1,93.6,75.3,59.6,56.0,49.5,42.0,80,44,17,29.88,29.65,5,0,0,0.02
2013-7-2,92.1,74.8,61.2,54.0,47.6,39.0,63,41,19,29.90,29.62,4,0,0,0.00
2013-7-3,91.0,73.7,61.2,59.0,52.4,41.0,84,52,23,29.82,29.49,3,0,0,0.05
2013-7-4,95.6,77.7,58.3,57.0,50.9,43.0,86,45,16,29.66,29.46,6,0,0,0.01
2013-7-5,98.2,77.6,65.5,64.0,55.3,47.0,88,51,18,29.61,29.37,11,0,0,0.21
2013-7-6,95.6,76.3,65.2,63.0,55.3,46.0,88,54,19,29.68,29.41,6,0,0,0.02
2013-7-7,98.7,80.6,64.2,61.0,54.5,47.0,82,47,18,29.66,29.46,2,0,0,0.03
2013-7-8,99.4,80.2,69.8,60.0,54.2,49.0,71,44,19,29.82,29.53,8,0,0,0.00
2013-7-9,100.7,80.0,65.6,62.0,57.3,50.0,82,51,19,29.83,29.57,6,0,0,0.00
2013-7-10,99.7,83.4,68.1,58.0,53.2,47.0,68,38,17,29.78,29.53,6,0,0,0.00
2013-7-11,93.2,79.8,69.4,59.0,54.9,48.0,66,45,22,29.80,29.52,4,0,0,0.00
2013-7-12,96.3,79.0,64.7,60.0,55.5,49.0,80,48,23,29.68,29.54,3,0,0,0.00
2013-7-13,99.9,81.1,64.0,63.0,54.6,45.0,87,46,15,29.72,29.54,5,0,0,0.02
2013-7-14,100.7,79.7,66.1,64.0,55.1,46.0,86,49,16,29.73,29.41,11,0,0,0.36
2013-7-15,76.5,70.2,65.8,62.0,55.6,48.0,87,62,44,29.81,29.59,3,0,0,0.00
2013-7-16,87.4,72.8,62.3,52.0,47.5,43.0,69,43,24,29.88,29.69,5,0,0,0.00
2013-7-17,84.1,71.9,59.3,56.0,50.8,45.0,86,51,26,29.99,29.82,7,0,0,0.01
2013-7-18,90.5,75.0,61.0,54.0,52.0,49.0,74,48,26,29.92,29.68,2,0,0,0.00
2013-7-19,92.7,72.8,65.3,64.0,58.4,54.0,87,64,27,29.80,29.57,3,0,0,0.22
2013-7-20,93.2,76.9,65.6,60.0,56.8,50.0,80,53,27,29.74,29.48,4,0,0,0.04
2013-7-21,95.1,78.8,66.9,60.0,54.5,44.0,74,47,19,29.67,29.47,8,0,0,0.00
2013-7-22,97.5,80.6,64.2,58.0,53.0,45.0,77,43,17,29.67,29.47,2,0,0,0.00
2013-7-23,101.0,81.4,64.8,57.0,51.1,41.0,73,39,16,29.66,29.45,8,0,0,0.00
2013-7-24,94.7,73.0,65.8,66.0,55.9,51.0,83,58,23,29.83,29.55,2,0,0,0.29
2013-7-25,88.8,75.5,64.2,60.0,58.0,56.0,81,57,34,29.86,29.63,2,0,0,0.00
2013-7-26,92.1,73.6,60.5,61.0,58.3,54.0,89,64,30,30.00,29.69,8,1,0,1.13
2013-7-27,88.2,73.4,60.7,59.0,56.3,49.0,88,59,27,30.00,29.63,2,0,0,0.00
2013-7-28,89.5,75.7,65.8,62.0,58.0,48.0,81,58,25,29.65,29.48,5,0,0,0.01
2013-7-29,92.5,76.4,61.6,61.0,52.4,41.0,87,50,17,29.75,29.59,6,0,0,0.01
2013-7-30,98.0,79.1,59.9,56.0,50.4,44.0,79,42,16,29.87,29.70,4,0,0,0.00
2013-7-31,100.2,80.2,63.2,58.0,50.8,41.0,70,41,14,29.87,29.66,3,0,0,0.00
2013-8-1,92.7,76.5,67.8,64.0,56.5,51.0,83,53,27,29.84,29.65,6,0,0,0.02
2013-8-2,95.9,76.2,63.7,62.0,58.1,47.0,87,60,20,29.80,29.55,10,0,0,0.14
2013-8-3,94.7,76.3,62.9,61.0,57.1,51.0,86,57,23,29.83,29.60,1,0,0,0.00
2013-8-4,97.1,78.8,64.7,62.0,56.8,47.0,83,52,22,29.79,29.57,2,0,0,0.12
2013-8-5,94.3,74.5,65.3,64.0,58.5,54.0,79,61,26,29.84,29.56,3,0,0,0.08
2013-8-6,93.2,75.9,65.5,57.0,53.9,48.0,69,49,24,29.74,29.53,5,0,0,0.00
2013-8-7,86.5,72.3,60.2,57.0,53.4,48.0,83,55,27,29.77,29.61,5,1,0,0.00
2013-8-8,89.0,74.5,63.5,57.0,49.6,39.0,80,47,20,29.73,29.58,6,1,0,0.00
2013-8-9,91.8,77.0,62.9,51.0,45.0,37.0,58,35,16,29.80,29.64,6,0,0,0.00
2013-8-10,88.6,72.9,61.8,55.0,50.4,40.0,75,48,26,29.99,29.73,7,1,0,0.12
2013-8-11,88.2,71.8,60.9,56.0,53.2,47.0,81,56,25,30.00,29.72,3,0,0,0.00
2013-8-12,88.8,72.9,64.8,59.0,55.7,51.0,72,57,27,29.89,29.69,3,0,0,0.00
2013-8-13,91.2,74.5,61.6,58.0,53.3,41.0,81,51,21,29.86,29.68,1,0,0,0.00
2013-8-14,92.3,73.4,59.6,58.0,51.8,40.0,84,51,17,29.87,29.65,4,0,0,0.00
2013-8-15,96.1,74.7,58.9,56.0,51.4,36.0,83,50,15,29.87,29.64,1,0,0,0.00
2013-8-16,99.2,77.9,57.3,54.0,47.3,35.0,78,41,11,29.87,29.63,2,0,0,0.00
2013-8-17,100.7,82.5,69.9,53.0,46.9,37.0,48,31,11,29.78,29.54,6,0,0,0.01
2013-8-18,98.2,81.0,66.9,56.0,49.3,43.0,62,36,15,29.78,29.58,3,0,0,0.00
2013-8-19,99.4,79.6,63.5,56.0,50.0,44.0,70,39,15,29.78,29.51,2,0,0,0.01
2013-8-20,96.6,76.2,60.5,61.0,55.0,46.0,84,53,19,29.76,29.55,3,0,0,0.01
2013-8-21,94.5,77.2,61.6,57.0,53.4,47.0,82,49,23,29.81,29.61,3,0,0,0.00
2013-8-22,96.3,78.4,60.9,54.0,50.1,44.0,74,41,17,29.82,29.58,1,0,0,0.00
2013-8-23,91.4,78.9,61.5,50.0,46.9,44.0,54,34,20,29.79,29.62,3,0,0,0.00
2013-8-24,90.5,74.5,64.8,62.0,55.2,49.0,86,55,26,29.81,29.63,3,0,0,0.06
2013-8-25,89.9,73.6,63.9,62.0,58.9,53.0,89,64,29,29.93,29.75,7,0,0,0.02
2013-8-26,93.2,76.0,61.2,60.0,55.2,51.0,85,53,25,29.93,29.68,2,0,0,0.00
2013-8-27,93.2,75.5,59.8,55.0,52.0,48.0,77,48,22,29.84,29.62,2,0,0,0.00
2013-8-28,93.4,75.0,58.1,56.0,50.9,47.0,78,46,21,29.83,29.66,2,0,0,0.00
2013-8-29,91.0,76.6,67.4,58.0,54.6,50.0,68,49,26,29.85,29.70,4,0,0,0.00
2013-8-30,97.8,77.8,62.9,61.0,55.0,49.0,80,50,20,29.87,29.58,2,0,0,0.00
2013-8-31,99.9,78.7,61.2,58.0,52.1,44.0,76,45,15,29.77,29.49,2,0,0,0.00
2013-9-1,99.9,79.2,63.7,60.0,50.5,44.0,67,40,16,29.75,29.50,7,0,0,0.01
2013-9-2,95.1,78.8,67.3,59.0,54.4,50.0,72,46,22,29.81,29.58,2,0,0,0.00
2013-9-3,97.1,79.5,66.3,58.0,53.2,47.0,70,44,18,29.81,29.58,2,0,0,0.00
2013-9-4,96.6,79.0,63.7,55.0,47.0,32.0,68,37,17,29.86,29.66,3,0,0,0.00
2013-9-5,95.4,75.9,56.2,51.0,42.1,36.0,61,34,14,29.92,29.73,1,0,0,0.00
2013-9-6,95.4,73.5,54.7,50.0,38.9,-99.9,60,35,14,29.96,29.65,2,-10,0,0.00
2013-9-7,94.7,73.9,57.3,58.0,49.9,45.0,70,46,20,29.85,29.62,1,0,0,0.00
2013-9-8,94.3,75.3,57.2,51.0,48.5,45.0,73,43,18,29.79,29.49,6,0,0,0.00
2013-9-9,91.8,74.9,58.9,60.0,50.7,42.0,77,47,22,29.66,29.43,2,0,0,0.04
2013-9-10,74.0,65.5,62.1,62.0,58.2,54.0,90,78,51,29.80,29.55,2,0,0,0.57
2013-9-11,85.7,71.0,61.6,62.0,57.2,47.0,91,66,27,29.85,29.65,2,0,0,0.00
2013-9-12,74.4,66.3,60.1,63.0,59.3,56.0,88,78,63,29.84,29.71,2,0,0,0.32
2013-9-13,77.2,65.1,60.4,61.0,58.1,53.0,91,80,44,29.83,29.64,2,0,0,0.28
2013-9-14,78.3,65.5,58.9,61.0,57.5,53.0,91,77,44,29.80,29.61,3,0,0,0.93
2013-9-15,83.8,66.9,56.3,57.0,53.7,45.0,91,67,27,29.84,29.69,2,0,0,0.22
2013-9-16,83.8,67.6,54.8,56.0,53.3,49.0,88,64,31,29.95,29.75,5,0,0,0.00
2013-9-17,85.3,70.0,56.9,58.0,54.8,49.0,90,63,29,29.88,29.61,3,0,0,0.00
2013-9-18,87.0,71.3,61.3,59.0,56.5,48.0,87,62,26,29.70,29.51,5,0,0,0.00
2013-9-19,87.6,70.4,58.4,60.0,54.8,46.0,89,62,24,29.73,29.52,4,0,0,0.09
2013-9-20,86.3,69.4,55.3,53.0,50.1,45.0,80,54,24,29.84,29.61,7,0,0,0.00
2013-9-21,84.3,68.6,54.8,56.0,51.8,46.0,87,59,27,29.83,29.58,5,0,0,0.00
2013-9-22,82.2,66.1,52.9,57.0,51.1,45.0,88,63,28,29.65,29.30,4,0,0,0.09
2013-9-23,74.7,60.8,44.8,44.0,35.2,29.0,80,43,19,29.85,29.52,10,1,0,0.00
2013-9-24,82.2,61.1,44.1,46.0,41.2,36.0,85,54,19,30.00,29.73,2,0,0,0.00
2013-9-25,86.7,64.0,45.1,46.0,42.6,35.0,85,53,18,29.82,29.41,3,0,0,0.00
2013-9-26,85.9,66.7,47.1,46.0,39.6,32.0,83,44,15,29.67,29.41,6,0,0,0.00
2013-9-27,72.3,58.0,45.1,49.0,41.2,31.0,73,55,35,29.85,29.46,8,1,0,0.00
2013-9-28,75.1,52.8,35.3,37.0,28.6,18.0,82,47,12,30.15,29.86,3,0,0,0.00
2013-9-29,80.9,56.5,35.6,39.0,30.5,19.0,79,46,12,30.19,29.83,3,0,0,0.00
2013-9-30,87.0,60.8,40.6,39.0,33.1,24.0,80,44,11,29.96,29.62,3,0,0,0.00
2013-10-1,89.3,62.2,39.8,40.0,33.9,19.0,83,44,8,29.92,29.63,1,0,0,0.00
2013-10-2,84.5,60.1,39.3,42.0,35.1,23.0,83,49,11,29.94,29.64,7,0,0,0.00
2013-10-3,81.8,60.2,40.6,40.0,35.2,23.0,83,48,12,29.83,29.49,2,0,0,0.00
2013-10-4,65.6,56.0,47.7,39.0,20.1,7.0,72,28,12,29.95,29.52,13,2,0,0.00
2013-10-5,64.5,51.8,37.2,25.0,18.1,13.0,54,29,14,30.17,29.94,7,1,0,0.00
2013-10-6,76.3,51.5,32.9,36.0,26.8,20.0,74,45,13,30.28,30.01,2,0,0,0.00
2013-10-7,79.8,53.9,33.8,37.0,28.5,22.0,74,45,13,30.25,29.89,6,0,0,0.00
2013-10-8,83.0,58.2,39.2,39.0,32.7,29.0,76,45,16,29.98,29.61,1,0,0,0.00
2013-10-9,79.8,59.5,39.8,40.0,33.4,27.0,77,43,15,29.81,29.59,3,0,0,0.00
2013-10-10,71.6,52.1,40.1,47.0,36.8,26.0,85,60,27,29.83,29.48,10,1,0,0.10
2013-10-11,67.6,47.8,31.2,34.0,30.3,27.0,88,57,23,30.00,29.81,5,0,0,0.01
2013-10-12,73.7,52.4,33.8,41.0,34.0,30.0,86,55,22,30.13,29.84,2,0,0,0.00
2013-10-13,80.3,60.1,40.9,45.0,39.1,34.0,87,52,20,30.04,29.66,5,0,0,0.00
2013-10-14,72.1,57.7,43.3,44.0,28.8,15.0,80,39,15,29.87,29.67,5,1,0,0.00
2013-10-15,70.1,51.2,31.8,31.0,27.6,22.0,80,45,22,30.01,29.78,6,1,0,0.00
2013-10-16,66.1,52.4,39.9,34.0,27.4,15.0,61,41,16,30.01,29.78,5,0,0,0.00
2013-10-17,69.1,47.1,29.3,31.0,22.9,17.0,81,45,14,30.16,29.82,5,0,0,0.00
2013-10-18,65.5,47.9,29.3,29.0,19.2,9.0,83,42,12,30.07,29.81,8,1,0,0.00
2013-10-19,69.6,47.5,28.8,32.0,23.9,16.0,79,47,13,30.19,29.90,3,0,0,0.00
2013-10-20,75.3,50.7,29.7,30.0,21.2,9.0,81,40,10,30.06,29.69,7,0,0,0.00
2013-10-21,68.8,50.4,34.6,35.0,28.6,22.0,75,48,19,30.07,29.77,2,0,0,0.00
2013-10-22,73.9,48.4,29.8,32.0,27.1,19.0,83,52,13,30.29,30.01,2,0,0,0.00
2013-10-23,74.6,49.8,31.3,36.0,27.7,21.0,74,48,18,30.24,29.91,1,0,0,0.00
2013-10-24,78.8,56.6,34.3,49.0,32.9,25.0,84,48,16,30.12,29.86,3,0,0,0.07
2013-10-25,69.8,54.9,44.8,47.0,43.4,38.0,84,67,36,30.08,29.87,7,1,0,0.04
2013-10-26,71.3,51.4,37.0,44.0,38.1,33.0,91,66,26,30.24,30.01,1,0,0,0.00
2013-10-27,72.5,50.9,34.7,40.0,35.5,31.0,90,62,24,30.14,29.74,3,0,0,0.00
2013-10-28,73.7,53.4,39.3,40.0,33.4,24.0,86,53,18,29.86,29.63,1,0,0,0.00
2013-10-29,72.1,55.9,38.2,32.0,26.9,23.0,70,37,16,29.93,29.62,7,1,0,0.00
2013-10-30,63.5,49.9,38.5,46.0,31.7,23.0,80,52,27,29.87,29.63,5,0,0,0.04
2013-10-31,58.1,44.1,29.7,30.0,25.2,19.0,84,53,24,30.12,29.84,10,1,0,0.01
2013-11-1,63.9,48.1,31.3,28.0,24.5,21.0,78,44,20,30.17,29.93,12,1,0,0.00
2013-11-2,66.8,45.6,28.5,34.0,26.1,23.0,84,52,19,30.31,29.93,3,0,0,0.00
2013-11-3,70.4,51.9,37.9,38.0,29.9,24.0,68,47,20,29.92,29.55,5,0,0,0.00
2013-11-4,70.1,50.7,32.5,41.0,34.1,28.0,85,57,25,29.87,29.57,5,0,0,0.00
2013-11-5,54.7,45.4,29.4,43.0,30.7,14.0,86,59,36,30.21,29.56,10,1,0,0.08
2013-11-6,57.3,39.5,23.0,20.0,15.0,10.0,76,42,16,30.47,30.20,3,0,0,0.00
2013-11-7,64.0,40.8,24.5,25.0,21.0,18.0,83,52,18,30.54,30.19,3,0,0,0.00
2013-11-8,64.8,42.2,24.1,28.0,22.8,18.0,87,54,20,30.31,29.95,2,0,0,0.00
2013-11-9,73.0,45.5,26.4,30.0,24.3,20.0,86,52,15,30.25,29.96,1,0,0,0.00
2013-11-10,71.3,46.7,29.0,29.0,24.5,21.0,79,49,15,30.34,30.05,1,0,0,0.00
2013-11-11,72.1,48.3,31.8,28.0,24.0,20.0,72,45,14,30.31,30.03,4,0,0,0.00
2013-11-12,61.8,44.9,29.8,34.0,28.7,23.0,84,56,30,30.53,30.18,3,0,0,0.00
2013-11-13,58.3,43.2,31.9,36.0,32.8,27.0,88,69,42,30.48,30.05,2,0,0,0.00
2013-11-14,64.5,43.6,30.7,39.0,31.5,26.0,89,67,30,30.10,29.84,2,0,0,0.00
2013-11-15,62.0,43.6,27.6,45.0,32.1,23.0,88,67,32,29.95,29.58,5,0,0,0.09
2013-11-16,63.2,49.9,39.8,43.0,35.2,27.0,88,61,28,29.69,29.46,6,0,0,0.01
2013-11-17,62.9,47.6,33.1,31.0,28.6,26.0,77,51,27,30.08,29.67,7,0,0,0.00
2013-11-18,61.0,40.7,29.7,31.0,28.0,25.0,85,64,28,30.25,30.02,0,0,0,0.00
2013-11-19,65.6,43.4,27.3,35.0,29.3,23.0,89,63,27,30.15,29.75,3,0,0,0.00
2013-11-20,49.4,41.7,33.8,43.0,36.7,29.0,90,82,57,29.91,29.74,1,0,0,0.16
2013-11-21,56.5,46.4,39.8,45.0,41.3,37.0,91,83,64,29.98,29.83,3,0,0,0.21
2013-11-22,44.3,38.0,34.3,41.0,29.3,24.0,89,72,60,30.34,29.95,6,1,0,0.05
2013-11-23,40.1,36.0,30.1,32.0,26.3,17.0,86,69,53,30.42,30.25,3,0,0,0.06
2013-11-24,33.1,30.2,25.8,23.0,21.0,18.0,81,69,58,30.38,30.15,3,0,0,0.06
2013-11-25,48.6,35.4,27.8,28.0,25.7,23.0,84,69,44,30.36,30.08,6,1,0,0.02
2013-11-26,51.7,34.0,23.0,28.0,24.3,19.0,87,70,39,30.50,30.33,2,0,0,0.00
2013-11-27,50.1,34.2,22.1,27.0,23.8,18.0,87,69,38,30.50,30.18,2,0,0,0.00
2013-11-28,53.3,35.1,25.3,24.0,22.3,20.0,86,64,29,30.32,30.14,1,0,0,0.00
2013-11-29,58.1,36.9,23.0,28.0,24.4,19.0,87,65,28,30.45,30.18,3,0,0,0.00
2013-11-30,61.0,39.5,25.8,32.0,27.5,22.0,88,66,31,30.41,30.10,2,0,0,0.00
2013-12-1,51.4,38.3,29.4,31.0,27.9,24.0,86,68,43,30.34,30.14,7,0,0,0.00
2013-12-2,56.7,39.5,29.0,28.0,25.3,23.0,79,59,31,30.18,29.83,5,0,0,0.00
2013-12-3,66.6,41.8,25.0,29.0,20.1,10.0,87,51,11,29.88,29.48,7,0,0,0.00
2013-12-4,61.3,43.2,31.0,31.0,22.6,18.0,65,48,19,29.79,29.44,10,1,0,0.00
2013-12-5,37.8,28.7,16.5,30.0,21.8,9.0,87,76,52,30.10,29.67,3,0,0,0.01
2013-12-6,37.6,22.8,11.2,20.0,12.1,5.0,80,65,36,30.33,30.11,1,0,0,0.11
2013-12-7,31.0,25.5,17.2,25.0,17.2,9.0,84,71,65,30.23,29.89,2,0,0,0.00
2013-12-8,38.0,29.8,24.5,25.0,14.3,7.0,83,54,38,30.07,29.82,11,1,0,0.00
2013-12-9,32.7,25.7,15.7,14.0,5.2,-3.0,64,44,23,30.58,30.03,8,2,0,0.01
2013-12-10,37.8,21.5,10.7,7.0,1.8,-2.0,67,45,21,30.65,30.35,2,0,0,0.00
2013-12-11,46.2,25.6,11.1,15.0,9.3,4.0,77,55,22,30.66,30.41,4,0,0,0.00
2013-12-12,45.1,30.2,17.3,20.0,14.1,10.0,78,54,28,30.61,30.14,3,0,0,0.00
2013-12-13,49.9,37.3,29.8,29.0,23.0,17.0,71,57,42,30.15,29.88,12,1,0,0.00
2013-12-14,50.1,35.4,21.9,19.0,15.6,12.0,73,47,23,30.49,30.05,12,1,0,0.00
2013-12-15,50.7,33.3,20.0,19.0,15.9,14.0,78,53,25,30.53,30.25,7,1,0,0.00
2013-12-16,58.7,36.7,20.2,22.0,18.1,15.0,84,52,22,30.52,30.22,7,0,0,0.00
2013-12-17,60.5,37.4,21.6,23.0,19.2,16.0,82,53,20,30.50,30.23,2,0,0,0.00
2013-12-18,56.6,35.6,22.7,24.0,19.8,16.0,80,57,24,30.30,29.89,2,0,0,0.00
2013-12-19,59.6,38.4,24.2,24.0,21.2,18.0,81,54,22,29.90,29.56,3,0,0,0.00
2013-12-20,56.6,39.0,26.9,30.0,22.1,17.0,72,55,22,29.82,29.49,3,0,0,0.00
2013-12-21,44.8,38.5,33.2,32.0,25.5,22.0,85,61,43,29.77,29.43,11,1,0,0.00
2013-12-22,48.2,34.6,23.0,23.0,16.4,9.0,75,50,23,30.31,29.77,3,0,0,0.00
2013-12-23,51.4,32.9,20.6,19.0,15.8,13.0,74,53,25,30.56,30.30,3,0,0,0.00
2013-12-24,52.8,34.5,18.8,22.0,18.4,14.0,85,56,27,30.50,30.15,4,0,0,0.00
2013-12-25,50.1,33.7,20.8,22.0,15.6,11.0,80,51,24,30.51,30.21,3,0,0,0.00
2013-12-26,52.6,30.6,15.6,16.0,12.8,7.0,80,53,21,30.58,30.24,2,0,0,0.00
2013-12-27,56.7,33.3,18.3,15.0,12.3,9.0,74,48,16,30.52,30.22,5,0,0,0.00
2013-12-28,50.5,31.4,16.4,19.0,14.3,11.0,81,54,22,30.31,29.92,3,0,0,0.00
2013-12-29,50.7,36.3,23.6,22.0,19.1,16.0,74,52,28,30.23,29.89,5,0,0,0.00
2013-12-30,53.9,34.2,19.7,17.0,11.4,4.0,78,45,15,30.43,30.17,11,0,0,0.00
2013-12-31,53.9,32.4,17.0,16.0,13.1,10.0,76,49,20,30.47,30.14,3,0,0,0.00
2014-1-1,56.9,37.2,20.2,21.0,14.5,12.0,77,46,17,30.29,30.07,11,1,0,0.00
2014-1-2,54.8,33.1,18.4,21.0,13.7,9.0,81,50,16,30.46,30.21,2,0,0,0.00